Location: Marcé
(47.5801°N, 0.3280°W)
Time: 21:55:58
(UTC+01:00)

Transit 2A - Pass Details

Date: 02 December 2021
Orbit: 591 x 967 km, 66.7° (Epoch: 23 January)

Event Time Altitude Azimuth Distance (km) Brightness Sun altitude
Rises 07:43:54 0° 324° (NW) 3,624 - -7.6°
Exits shadow 07:44:55 - 328° (NNW) 3,321 8.8 -7.5°
Reaches altitude 10° 07:47:11 10° 340° (NNW) 2,703 8.4 -7.1°
Maximum altitude 07:51:51 21° 27° (NNE) 2,045 8.2 -6.4°
Drops below altitude 10° 07:56:29 10° 74° (ENE) 2,694 9.6 -5.7°
Sets 07:59:44 0° 91° (E) 3,609 10.8 -5.2°
